THOR ABLESTAR DEB, 644

Orbit data source: Space-Track

THOR ABLESTAR DEB, 644 is space debris in LEO originally from a launch on Thu, 29 Jun 1961 UTC launched from the Air Force Eastern Test Range (AFETR). Debris objects in space refer to the collection of defunct objects orbiting the Earth. Examples of debris include non-operational satellites, rocket bodies, and fragments generated from explosions, collisions, or faulty payload assembly.

Loading next visibility...
Identifier
644, 1961-015GV
Orbit
LEO
Country
Flag of USUS
Related business
Manufacturer
Unknown
Mission
Spacecraft
Bus & Motor
Unknown
Mass
Unknown
Launch date (UTC)
1961-06-29 (64 years ago)
Launch vehicle
Unknown
Launch site
Air Force Eastern Test Range (AFETR)
Object type
Payload
Rocket body
Debris
Shape & HBR
Unknown shape, 0.1 m
Radar Cross Section
Small (<0.1 m²)

Expand to show TLE details & history
Last TLE update: 7 hours ago

TLE from 7 hours ago
0 THOR ABLESTAR DEB
1   644U 61015GV  25343.14720919  .00001615  00000-0  20633-2 0  9996
2   644  67.1003  12.2912 0146357 251.4054 178.4250 13.61099727171873
Epoch: 2025-12-09T03:31Z
TLE epoch observation values (Epoch: 2025-12-09T03:31:58.874Z)
Latitude
59.98803°
Longitude
-72.15696°
Altitude
1,149.504 km
Speed
7.231 km/s
True Right ascension
03h 55m 53s
True Declination
59° 50' 48"
Sunlit
Object was in full shadow at epoch
Visualization orbit readout
Latitude
Unknown
Longitude
Unknown
Altitude
Unknown
Speed
Unknown
Apparent Right ascension
Unknown
Apparent Declination
Unknown
Sunlit
N/A
Visualization observer readout
Local Sidereal Time
08:41:19
Azimuth
Unknown
Elevation
Unknown
Doppler factor
Unknown
Orbital elements
Apogee altitude
1,138.505 km
Perigee altitude
921.656 km
Semi-major axis
7,408.217 km
Eccentricity
0.01464
Inclination
67.1003°
RAAN
12.2912°
Arg. of periapsis
251.4054°
True anomaly
178.47027°
Mean anomaly
178.425°
Eccentric anomaly
178.44772°
Mean motion
3.40387 °/min
Orbital period
105.76 mins
BSTAR
0.0020633
Loading maneuver chart data...
Computing Atmospheric mass density...
Loading historical data...
Loading historical data...
Loading historical data...
Loading historical data...
Loading historical data...
Loading historical data...
Loading historical data...

Documentation

Showing up to 5 results
|